{"data":{"norad_id":67649,"epoch":"2026-09-19T08:00:22.271040Z","epoch_age_seconds":169907,"freshness":"FRESH","line1":"1 67649U 26022B   26262.33359110  .00013253  00000+0  41221-3 0  9993","line2":"2 67649  97.2856 294.9060 0000847 102.4709 257.6629 15.33437454 35311","mean_motion":15.33437454,"eccentricity":8.47e-5,"inclination_deg":97.2856,"raan_deg":294.906,"arg_perigee_deg":102.4709,"mean_anomaly_deg":257.6629,"bstar":0.00041221,"rev_number":3531,"period_min":93.906666766469,"perigee_km":464.9859645447,"apogee_km":466.14528776957,"semimajor_km":6843.7026261571,"source":"CELESTRAK","updated_at":"2026-09-20T09:00:43.617835Z"}}